Retour au catalogue

SDX01

ActifScienceVLEO
NORAD 62459·PAYLOAD·🇮🇳 India

Lancé Dec 30, 2024 depuis Satish Dhawan Space Centre

Loading…

Prochains Passages (prochaines 24 heures)

TLE

FraisSource: Space-Track

Époque: Sep 14, 2026, 13:55 UTC

1 62459U 24253A   26257.58021936  .00179300  22825-4  54297-3 0  9991
2 62459  54.9897 280.5351 0009286  45.7175 314.4637 15.91767693 96656

Suivez SDX01 en temps réel avec AllMySat

Download on the App Store